Regional Weather Roundup
Issued by NWS

Home | Current Version | Previous Version | Text Only | Print | Product List | Glossary On
Versions: 1 2 3 4 5 6 7 8 9 10 11 12 13 14 15 16 17 18 19 20 21 22 23 24 25 26 27 28 29 30 31 32 33 34 35 36 37 38 39 40 41 42 43 44 45 46 47 48 49 50
812
ASUS43 KLSX 161710
RWRMO

WEATHER SUMMARY FOR MISSOURI
NATIONAL WEATHER SERVICE SPRINGFIELD MO
1100 AM CST MON JAN 16 2017

NOTE: "FAIR" INDICATES FEW OR NO CLOUDS BELOW 12,000 FEET WITH NO
       SIGNIFICANT WEATHER AND/OR OBSTRUCTIONS TO VISIBILITY.
       CURRENT SKY AND/OR WEATHER CONDITIONS ARE NOT AVAILABLE FOR
       CHILLICOTHE AND FARMINGTON.

MOZ001>031-035>038-043-044-053-054-161800-
...NORTHERN AND WESTERN MISSOURI...

CITY           SKY/WX    TMP DP  RH WIND       PRES   REMARKS
KANSAS CTY INT FOG       41  40  96 E12       29.89F VSB 1/8
KANSAS C DTWN  CLOUDY    39  32  76 E7        29.90S HAZE
LEE`S SUMMIT   FOG       43  43 100 E9        29.89F VSB 1
ST JOSEPH      CLOUDY    36  36 100 E7        29.91F
CHILLICOTHE      N/A     38  37  97 E9        29.96F
KIRKSVILLE     LGT RAIN  34  34 100 E12       29.98F FOG     WCI  25

$$
MOZ066>068-077>081-088>096-101>105-161800-
...SOUTHWEST MISSOURI...

CITY           SKY/WX    TMP DP  RH WIND       PRES   REMARKS
SPRINGFIELD    LGT RAIN  53  52  96 SE15      29.93F FOG
JOPLIN         PTSUNNY   60  54  80 S17       29.90S
BRANSON        FOG       50  50 100 E9        29.96F VSB 1/2

$$
MOZ032>034-039>042-045>050-055>058-069>072-161800-
...CENTRAL MISSOURI...

CITY           SKY/WX    TMP DP  RH WIND       PRES   REMARKS
COLUMBIA       CLOUDY    47  47 100 SE15      29.97F FOG
JEFFERSON CITY CLOUDY    49  47  93 SE13      29.98F
ROLLA          LGT RAIN  52  52 100 SE12      29.99F FOG
SEDALIA        CLOUDY    54  52  93 SE13      29.94S
WHITEMAN AFB   CLOUDY    53  53 100 S8        29.90F
WARRENSBURG    CLOUDY    50  48  93 CALM      29.90F
OSAGE BEACH    CLOUDY    55  53  93 SE9G17    29.96F

$$
MOZ051-052-059>065-161800-
...EAST CENTRAL MISSOURI...

CITY           SKY/WX    TMP DP  RH WIND       PRES   REMARKS
ST LOUIS INTL  LGT RAIN  47  44  90 SE12      30.07F FOG
SPIRIT OF STL  LGT RAIN  45  45 100 E3        30.07F FOG
ST CHARLES     LGT RAIN  44  44 100 SE7       30.08F FOG

$$
MOZ072>076-082>087-097>100-106>115-161800-
...SOUTH CENTRAL AND SOUTHEAST MISSOURI...

CITY           SKY/WX    TMP DP  RH WIND       PRES   REMARKS
CAPE GIRARDEAU CLOUDY    51  48  89 SE8       30.11F
FARMINGTON     CLOUDY    48  48 100 SE10      30.08F FOG
POPLAR BLUFF   CLOUDY    49  49 100 VRB5      30.09F FOG
WEST PLAINS    FOG       50  50 100 SE10G17   30.04F VSB<1/4

$$




USA.gov is the U.S. government's official web portal to all federal, state and local government web resources and services.